COSMOS 1275 DEB, 39056

Orbit data source: Space-Track

COSMOS 1275 DEB, 39056 is space debris in LEO originally from a launch on Thu, 04 Jun 1981 UTC launched from the Plesetsk Missile And Space Complex (PKMTR). Debris objects in space refer to the collection of defunct objects orbiting the Earth. Examples of debris include non-operational satellites, rocket bodies, and fragments generated from explosions, collisions, or faulty payload assembly.

Loading next visibility...
Identifier
39056, 1981-053MU
Orbit
LEO
Country
Flag of CISCIS
Related business
Manufacturer
Unknown
Mission
Spacecraft
Bus & Motor
Unknown
Mass
Unknown
Launch date (UTC)
1981-06-04 (45 years ago)
Launch vehicle
Unknown
Launch site
Plesetsk Missile And Space Complex (PKMTR)
Object type
Payload
Rocket body
Debris
Shape & HBR
Unknown shape, 1.1 m
Radar Cross Section
Small (<0.1 m²)

Expand to show TLE details & history
Last TLE update: 1 month ago

TLE from 1 month ago
0 COSMOS 1275 DEB
1 39056U 81053MU  26111.79600614  .00000726  00000-0  82192-3 0  9994
2 39056  82.9441 304.6395 0122278 242.2967 116.5736 13.66125970 71947
Epoch: 2026-04-21T19:06Z
TLE epoch observation values (Epoch: 2026-04-21T19:06:14.930Z)
Latitude
-0°
Longitude
168.21064°
Altitude
1,057.717 km
Speed
7.303 km/s
True Right ascension
20h 18m 33s
True Declination
0° 00' 00"
Sunlit
Object was in daylight at epoch
Visualization orbit readout
Latitude
Unknown
Longitude
Unknown
Altitude
Unknown
Speed
Unknown
Apparent Right ascension
Unknown
Apparent Declination
Unknown
Sunlit
N/A
Visualization observer readout
Local Sidereal Time
06:26:44
Azimuth
Unknown
Elevation
Unknown
Doppler factor
Unknown
Orbital elements
Apogee altitude
1,101.021 km
Perigee altitude
920.324 km
Semi-major axis
7,388.81 km
Eccentricity
0.01223
Inclination
82.9441°
RAAN
304.6395°
Arg. of periapsis
242.2967°
True anomaly
117.81817°
Mean anomaly
116.5736°
Eccentric anomaly
117.19674°
Mean motion
3.41729 °/min
Orbital period
105.35 mins
BSTAR
0.00082192
Loading maneuver chart data...
Computing Atmospheric mass density...
Loading historical data...
Loading historical data...
Loading historical data...
Loading historical data...
Loading historical data...
Loading historical data...
Loading historical data...

Documentation

Showing up to 5 results
|